軌道要素
Epoch 2023 Sept. 13.0 TT = JDT 2460200.5
T 2022 June 11.88046 TT Rudenko
q 1.7772729 (2000.0) P Q
z -0.0004381 Peri. 228.84594 -0.11495718 -0.43254692
+/-0.0000005 Node 104.47937 -0.37420707 +0.85276111
e 1.0007786 Incl. 112.54361 -0.92019233 -0.29274843
>From 1504 observations 2021 Mar. 9-2024 Jan. 13, mean residual 0".6.
|